Temperature
17 17 16 16 16 16 16 16 16 15 15 15 15 15 15 15 15 15 15 14 14 14 14 14 14 14 14 14 13 13 13 13 13 12 11 11 11 11 11 11 11 11 11
16 16 16 16 16 16 16 16 15 15 15 15 15 15 15 15 15 15 14 14 14 14 14 14 14 14 14 13 13 13 13 13 13 12 11 11 11 11 11 11 10 10 10
16 16 16 16 16 16 15 15 15 15 15 15 15 15 15 15 15 15 14 14 14 14 14 14 13 13 13 13 13 13 13 12 12 12 12 11 11 11 10 10 10 10 10
16 16 16 16 15 15 15 15 15 15 15 15 15 15 15 14 14 14 14 14 14 14 14 14 13 13 13 13 13 13 12 12 12 12 11 11 11 10 10 10 10 10 10
16 15 15 15 15 15 15 15 15 15 15 15 15 15 14 14 14 14 14 14 14 13 13 13 13 13 13 13 13 12 12 12 12 11 11 11 11 10 10 10 10 10 10
15 15 15 15 15 15 15 15 15 15 15 15 14 14 14 14 14 14 13 13 13 13 13 13 13 13 13 13 12 12 12 12 12 11 11 11 11 10 10 10 10 10 9
15 15 15 15 15 15 15 15 15 14 14 14 14 14 14 14 14 13 13 13 13 13 13 13 13 12 12 12 12 12 12 12 11 11 11 11 10 10 10 10 10 10 9
15 15 15 15 15 14 14 14 14 14 14 14 14 14 14 14 14 13 13 13 13 13 13 12 12 12 12 12 12 12 12 11 11 11 11 11 10 10 10 10 10 9 9
15 15 14 14 14 14 14 14 14 14 14 14 14 14 14 14 13 13 13 13 13 13 12 12 12 12 12 12 12 11 11 11 11 10 10 10 10 10 10 10 10 9 9
14 14 14 14 14 14 14 14 14 14 13 13 13 13 13 13 13 13 13 13 13 13 12 12 12 12 12 11 11 11 11 11 10 10 10 10 10 10 10 10 9 9 9
14 14 14 14 14 14 13 13 13 13 13 13 13 13 13 13 13 13 13 12 12 12 12 12 12 11 11 11 11 11 11 10 10 10 10 10 10 10 10 9 9 9 8
14 14 14 13 13 13 13 13 13 13 13 13 13 13 13 13 13 13 12 12 12 12 12 12 11 11 11 11 11 11 10 10 10 10 9 9 9 9 9 9 9 9 8
14 13 13 13 13 13 13 13 13 13 13 13 12 12 12 12 12 12 12 12 12 12 11 11 11 11 11 11 10 10 10 10 10 9 9 9 9 9 9 9 9 8 8
13 13 13 13 13 13 13 13 13 13 12 12 12 12 12 12 12 12 12 12 11 11 11 11 11 10 10 10 10 10 10 9 9 9 9 9 9 8 8 8 8 8 8
13 13 13 13 13 13 13 13 12 12 12 12 12 12 12 12 12 12 12 12 11 11 11 10 10 10 10 10 10 9 9 9 9 9 9 8 8 8 8 8 8 8 7
13 12 12 12 12 12 12 12 12 12 12 12 12 12 12 12 12 12 12 11 11 11 10 10 10 10 10 10 9 9 9 9 9 9 8 8 8 8 8 8 7 7 7
12 12 12 12 12 12 12 12 12 12 11 11 12 12 12 11 11 11 11 11 11 10 10 10 10 10 10 9 9 9 9 9 9 9 8 8 8 8 7 7 7 7 6
12 12 12 12 12 12 12 12 12 12 11 11 11 11 11 11 11 11 11 11 10 10 10 10 10 10 9 9 9 9 9 9 9 8 8 8 8 7 7 7 7 6 6
12 12 12 12 12 12 11 11 11 11 11 11 11 11 11 11 11 10 10 10 10 10 10 10 10 9 9 9 9 9 9 8 8 8 8 8 7 7 7 7 6 6 6
12 12 12 11 11 11 11 11 11 11 11 11 11 11 11 10 10 10 10 10 10 10 10 10 9 9 9 9 9 9 8 8 8 8 8 7 7 7 7 6 6 6 5
11 11 11 11 11 11 11 11 10 10 10 11 11 11 11 11 11 10 10 10 10 10 10 9 9 9 9 9 9 8 8 8 8 8 7 7 7 7 6 6 6 5 5
11 11 11 11 10 10 10 10 10 10 10 10 10 10 10 10 10 10 10 10 10 10 10 9 9 9 9 9 9 8 8 8 8 8 7 7 7 6 6 6 6 5 5
10 10 10 10 10 10 10 10 10 10 10 10 10 10 10 10 10 10 10 10 10 9 9 9 9 9 9 8 8 8 8 8 8 8 7 7 6 6 6 6 5 5 5
10 10 10 10 9 9 9 9 9 9 9 9 9 9 9 10 9 9 9 9 9 9 9 9 9 8 8 8 8 8 8 8 7 7 7 7 6 6 6 5 5 5 4
9 9 9 9 9 9 9 9 9 9 9 9 9 9 9 9 9 9 9 9 8 8 8 8 8 8 8 8 8 8 8 7 7 7 7 6 6 6 5 5 5 4 4
9 9 9 9 9 9 9 9 9 9 9 9 9 9 9 9 9 9 8 8 8 8 8 8 8 8 8 7 7 7 7 7 7 6 6 6 6 5 5 5 5 4 4
Wind_Speed
4 4 4 4 4 4 4 4 4 4 4 3 4 4 3 3 4 3 3 2 3 2 2 3 2 2 2 1 1 1 2 3 3 1 2 2 3 4 4 6 8 8 8
3 4 4 4 4 4 4 4 3 3 4 4 3 3 3 3 4 4 3 2 2 2 2 3 2 2 2 1 2 2 2 3 4 3 1 2 2 3 3 3 4 6 8
2 3 4 4 4 4 4 4 4 3 4 3 3 3 3 3 3 3 3 3 2 2 2 2 2 3 2 2 2 2 2 3 3 3 2 1 1 1 2 1 3 4 5
2 3 3 4 4 4 3 3 3 3 3 3 3 3 3 3 3 3 3 3 3 2 2 2 2 2 2 2 2 2 3 3 3 3 3 2 1 1 2 1 1 1 1
3 3 2 3 3 3 4 3 2 2 2 3 4 3 3 2 2 2 2 3 3 3 2 3 3 4 5 4 3 3 3 2 2 3 3 2 1 1 1 1 1 1 0
3 3 2 2 3 4 4 3 3 2 2 3 3 4 4 3 3 3 2 2 3 3 3 3 4 4 6 7 8 7 5 3 3 3 2 2 1 1 1 1 1 1 1
3 3 3 2 3 3 4 4 3 3 3 3 3 4 4 4 4 3 3 2 2 2 2 3 3 4 5 4 5 6 6 6 4 4 3 2 2 1 2 1 1 2 1
3 2 2 2 3 3 3 3 3 3 3 3 3 3 4 4 4 4 3 2 1 1 2 3 3 3 3 4 4 4 3 3 3 3 2 2 2 2 2 2 2 2 1
3 3 2 3 3 4 4 3 3 3 3 3 3 4 5 4 4 4 3 2 2 2 2 2 3 3 4 5 4 4 4 2 4 6 6 5 5 5 4 2 2 2 0
3 3 3 2 3 4 5 4 2 3 3 3 3 3 4 4 4 4 4 2 2 2 2 2 2 3 4 5 4 4 3 2 3 3 3 4 4 5 4 3 2 1 1
3 2 2 2 3 4 4 4 4 4 3 3 3 3 3 3 4 4 4 2 2 2 2 2 2 4 4 4 3 2 4 3 3 3 2 2 2 2 2 2 2 2 2
2 2 3 3 3 3 4 4 4 4 4 4 4 3 2 3 4 4 4 3 2 2 2 2 3 5 4 3 2 2 3 3 2 2 2 1 1 1 1 2 2 2 2
2 3 3 3 3 3 4 4 4 4 4 4 4 4 3 3 3 5 5 4 3 2 2 3 5 6 4 3 2 3 3 2 2 2 2 2 2 2 2 2 1 2 2
2 3 3 3 3 3 3 3 3 4 4 4 4 4 3 3 3 3 3 3 3 3 2 3 5 5 3 3 3 2 2 2 3 2 2 2 2 2 2 2 1 1 0
2 2 3 3 3 3 3 3 4 4 5 5 4 4 5 5 6 8 6 5 4 4 4 2 2 2 2 2 2 2 2 2 2 2 2 2 2 2 2 1 2 1 1
3 3 2 2 2 3 3 2 1 3 5 6 6 6 4 5 7 9 9 7 7 8 5 3 3 4 4 4 4 3 3 3 3 3 3 3 3 3 2 2 2 2 2
4 3 3 2 3 3 3 4 2 0 1 4 6 6 6 7 7 9 9 8 8 8 4 4 4 5 5 5 5 4 4 4 3 3 3 3 3 3 3 3 3 2 3
4 4 4 3 4 4 4 4 4 4 3 1 3 7 8 8 8 8 9 7 5 5 5 5 5 5 5 5 5 5 4 4 4 4 4 3 3 3 3 3 4 4 3
3 3 4 3 3 3 3 3 3 4 4 3 2 3 6 7 7 8 9 5 6 6 6 5 5 5 5 5 5 5 5 4 4 4 4 4 4 4 4 4 4 4 4
3 4 4 3 3 3 4 4 4 4 4 4 4 4 5 5 4 6 6 6 6 6 6 6 5 5 5 4 4 5 5 5 5 4 4 4 4 4 4 4 4 4 4
3 4 5 4 4 4 4 4 4 4 4 4 4 5 8 7 7 7 7 7 7 7 6 6 5 5 5 4 4 5 5 5 5 5 5 4 4 4 4 4 4 4 3
3 3 4 4 4 4 4 4 4 5 5 5 4 5 9 6 6 6 6 7 6 6 6 5 5 5 6 6 6 6 5 5 5 5 4 4 4 4 4 4 4 4 3
3 3 3 3 3 4 4 4 4 4 4 5 4 4 6 6 6 6 6 6 5 5 6 6 5 5 5 6 7 6 6 6 6 5 5 5 4 4 4 4 5 5 4
3 4 4 4 3 4 4 4 4 4 4 4 5 5 5 6 5 5 5 5 5 5 6 6 6 7 7 6 6 7 7 7 7 7 6 5 5 4 4 4 5 5 5
3 3 4 4 4 4 4 4 4 4 4 4 4 4 4 5 5 5 4 4 5 5 5 6 6 6 7 7 6 6 8 9 9 8 7 5 5 5 5 5 5 5 5
3 3 3 3 3 4 4 4 4 4 4 4 4 4 4 5 5 5 4 4 4 4 4 5 6 7 7 7 7 8 9 9 10 10 8 5 5 5 5 5 6 5 5
Wind_Direction
196 186 177 172 168 168 164 168 168 164 168 177 169 160 162 163 143 136 148 158 151 148 134 115 98 86 87 87 80 55 60 100 118 110 103 112 102 107 120 127 136 127 120
190 172 178 177 175 170 164 165 173 175 181 179 158 154 163 153 147 148 155 140 135 136 134 132 133 111 102 92 98 91 91 105 125 125 113 101 108 130 143 146 136 136 137
168 171 181 174 176 170 172 177 184 187 184 174 162 161 150 140 145 146 151 144 133 123 121 132 130 120 129 121 112 102 108 110 116 131 132 109 101 111 107 110 118 126 138
165 173 189 178 175 169 171 174 178 182 178 170 153 143 141 150 149 150 150 143 131 120 96 95 92 93 108 127 126 116 114 111 117 126 131 125 112 110 99 95 84 109 121
156 161 179 162 162 150 146 162 157 149 146 131 134 133 123 114 109 118 142 145 132 124 117 112 102 98 86 86 95 90 105 118 126 129 131 114 112 117 158 169 133 165 94
153 154 158 150 146 145 152 158 151 160 146 131 132 127 120 115 106 103 91 126 135 144 157 149 134 117 101 93 92 86 91 111 124 120 117 136 160 165 170 141 128 100 309
147 149 149 149 141 149 152 140 147 148 132 129 132 133 132 129 116 111 101 100 117 146 152 142 128 126 125 118 104 94 80 77 95 127 131 158 165 190 155 129 141 142 179
147 145 146 145 142 142 132 134 153 150 148 154 153 152 139 132 120 110 105 122 130 137 139 137 129 129 126 126 132 117 97 78 99 108 133 153 140 152 153 160 173 151 111
163 172 166 163 159 154 150 155 159 149 155 163 160 156 145 141 136 131 125 148 142 132 110 104 125 131 123 127 131 132 130 123 98 99 103 106 112 117 118 92 74 95 123
178 187 179 179 171 167 167 165 161 158 163 160 163 161 152 149 153 152 151 157 156 148 123 100 101 117 119 128 147 148 152 166 135 107 86 90 96 107 104 106 125 117 134
178 180 177 182 182 178 169 164 163 164 168 176 170 158 151 157 156 153 152 155 169 165 152 137 118 119 117 118 132 166 177 158 146 143 138 127 110 102 95 86 95 127 146
158 175 180 184 187 172 159 166 170 167 171 177 170 159 157 159 155 162 165 168 154 153 166 167 160 146 133 134 139 138 139 128 136 133 138 154 150 151 141 94 82 77 106
177 182 181 180 174 164 166 177 174 173 177 185 175 175 176 170 159 157 167 168 159 139 140 149 159 159 149 150 154 148 142 143 150 160 181 194 178 158 124 110 89 72 36
185 187 187 186 175 166 162 167 171 180 184 188 187 188 183 177 168 169 174 170 161 145 133 135 146 155 155 162 167 179 186 180 171 184 190 178 151 147 161 166 166 164 318
192 195 198 188 175 168 171 183 186 192 190 190 195 190 183 192 195 182 178 186 185 177 150 136 145 155 170 170 173 184 188 190 196 195 180 178 179 178 187 173 158 163 210
200 200 199 187 170 168 165 156 144 183 190 192 190 188 200 195 178 178 183 181 175 165 155 171 185 188 188 188 190 193 195 200 205 198 194 188 191 190 194 188 175 194 217
205 200 194 188 178 178 175 173 173 118 172 198 194 191 192 187 179 181 179 172 171 167 177 193 196 197 197 195 196 198 203 204 199 198 195 193 194 195 196 201 203 215 227
205 198 195 198 193 192 195 193 183 178 184 222 216 197 187 185 182 178 171 156 171 186 199 202 205 203 201 200 198 201 204 199 196 200 196 194 195 199 207 213 214 215 221
211 201 193 191 191 191 194 197 193 193 190 187 169 185 187 178 175 175 170 184 194 200 206 210 211 209 206 202 199 198 199 200 197 194 195 197 199 202 214 218 219 218 214
206 210 200 191 194 198 197 199 200 201 199 194 193 187 169 164 181 188 195 206 208 210 209 210 212 210 205 203 201 198 200 200 197 198 198 199 202 205 213 214 215 216 221
201 203 202 200 205 206 205 208 208 206 208 207 204 194 179 189 198 199 201 209 211 214 214 211 208 206 208 206 207 205 205 204 199 198 200 203 202 208 211 208 210 214 217
215 206 201 207 211 211 210 214 212 209 212 216 213 201 189 194 204 204 205 212 216 216 212 208 211 205 200 202 204 207 209 205 199 199 204 206 202 201 202 205 207 210 212
215 215 210 212 214 216 219 223 222 216 214 214 209 202 197 205 209 210 209 210 210 213 206 197 203 203 196 197 196 194 204 205 197 194 200 204 202 201 201 206 210 213 215
217 215 211 214 218 220 222 224 224 223 221 216 214 211 205 205 211 214 211 209 206 206 199 193 198 201 196 193 195 199 200 201 196 193 196 200 203 205 205 209 212 212 215
221 220 216 217 217 219 224 227 227 224 225 222 216 214 211 207 210 213 209 204 206 209 203 193 192 195 194 193 192 196 198 200 198 194 191 193 198 203 206 209 211 211 215
219 220 222 226 226 222 223 227 228 226 228 228 220 213 212 209 209 210 205 198 198 205 208 196 197 196 194 194 193 194 197 198 198 197 192 191 195 205 204 208 210 212 214
Height
1523 1525 1526 1528 1530 1532 1533 1534 1536 1538 1539 1540 1541 1542 1543 1544 1545 1546 1547 1548 1548 1549 1549 1549 1550 1550 1550 1550 1550 1551 1551 1551 1551 1552 1552 1553 1553 1553 1553 1553 1552 1552 1552
1521 1523 1525 1526 1528 1530 1531 1533 1534 1536 1537 1539 1540 1540 1542 1543 1543 1545 1546 1546 1547 1547 1548 1548 1549 1549 1549 1549 1550 1550 1550 1551 1551 1551 1552 1552 1552 1553 1553 1553 1552 1552 1552
1519 1521 1522 1524 1526 1528 1529 1531 1533 1534 1535 1537 1538 1539 1540 1541 1542 1543 1544 1545 1545 1546 1547 1547 1547 1548 1548 1548 1549 1549 1549 1550 1550 1550 1550 1551 1551 1552 1552 1552 1552 1551 1551
1517 1518 1520 1522 1523 1525 1527 1529 1531 1532 1533 1534 1535 1537 1538 1539 1540 1542 1543 1543 1544 1545 1545 1546 1546 1546 1547 1547 1548 1548 1548 1549 1549 1549 1549 1550 1550 1551 1551 1551 1551 1551 1551
1516 1517 1518 1520 1522 1523 1525 1527 1528 1530 1531 1532 1533 1534 1536 1537 1538 1539 1541 1542 1543 1543 1544 1545 1545 1545 1546 1546 1547 1547 1547 1547 1548 1548 1548 1549 1549 1549 1550 1550 1550 1550 1550
1514 1515 1517 1518 1520 1521 1522 1524 1526 1528 1529 1530 1531 1532 1534 1535 1537 1538 1539 1540 1541 1541 1542 1543 1543 1544 1544 1545 1545 1546 1546 1546 1546 1547 1547 1547 1548 1548 1548 1548 1549 1548 1548
1512 1514 1515 1516 1518 1519 1521 1522 1524 1526 1527 1528 1529 1531 1532 1533 1535 1536 1537 1538 1539 1540 1541 1541 1542 1542 1543 1543 1544 1544 1545 1545 1546 1546 1546 1546 1546 1547 1547 1547 1547 1547 1547
1510 1512 1513 1515 1516 1517 1519 1520 1522 1523 1525 1526 1527 1529 1530 1531 1533 1534 1535 1536 1537 1538 1539 1539 1540 1540 1541 1541 1542 1542 1543 1544 1544 1545 1545 1545 1545 1546 1545 1546 1545 1545 1546
1509 1510 1511 1513 1514 1515 1517 1518 1519 1521 1522 1524 1525 1526 1527 1529 1530 1532 1533 1534 1535 1536 1536 1537 1538 1538 1539 1540 1540 1541 1541 1542 1543 1543 1543 1543 1544 1544 1544 1544 1543 1543 1543
1506 1508 1509 1510 1512 1513 1514 1516 1517 1519 1520 1522 1523 1524 1526 1527 1528 1529 1531 1531 1532 1533 1534 1535 1535 1536 1537 1537 1538 1539 1539 1540 1540 1541 1541 1542 1542 1542 1542 1541 1541 1541 1541
1505 1506 1507 1508 1509 1510 1512 1513 1515 1516 1518 1519 1521 1522 1523 1525 1526 1527 1528 1529 1529 1530 1531 1532 1533 1534 1534 1535 1536 1536 1537 1538 1538 1539 1539 1539 1540 1539 1539 1539 1539 1539 1539
1502 1503 1504 1505 1507 1508 1509 1511 1512 1514 1515 1517 1518 1520 1521 1523 1524 1525 1526 1526 1527 1528 1528 1529 1530 1531 1532 1533 1534 1534 1535 1535 1536 1536 1536 1536 1537 1537 1537 1537 1537 1537 1537
1500 1501 1502 1503 1504 1505 1507 1508 1510 1511 1513 1514 1515 1516 1518 1519 1520 1521 1522 1523 1524 1525 1526 1526 1527 1528 1529 1530 1531 1531 1532 1532 1533 1533 1533 1534 1534 1535 1535 1534 1534 1534 1534
1497 1498 1499 1500 1501 1503 1504 1505 1506 1508 1509 1510 1512 1513 1514 1515 1516 1517 1518 1520 1521 1522 1523 1524 1525 1525 1526 1527 1528 1528 1529 1529 1530 1530 1530 1531 1532 1532 1531 1531 1531 1531 1530
1495 1496 1497 1498 1499 1500 1501 1502 1503 1504 1506 1507 1508 1509 1511 1511 1512 1514 1514 1516 1517 1518 1519 1520 1521 1522 1522 1523 1524 1525 1525 1526 1526 1527 1527 1527 1528 1528 1528 1528 1528 1527 1526
1492 1493 1494 1495 1496 1497 1497 1499 1500 1502 1503 1504 1505 1506 1507 1508 1509 1510 1511 1512 1513 1514 1515 1515 1516 1517 1518 1519 1520 1521 1522 1522 1523 1523 1524 1524 1524 1524 1524 1524 1524 1523 1522
1488 1489 1490 1491 1492 1493 1494 1495 1496 1497 1499 1500 1501 1502 1504 1505 1506 1507 1508 1509 1510 1511 1511 1511 1512 1513 1514 1515 1516 1517 1517 1518 1519 1519 1519 1520 1520 1520 1520 1520 1519 1519 1518
1485 1486 1487 1487 1488 1489 1490 1491 1492 1493 1494 1495 1497 1498 1500 1501 1502 1502 1504 1505 1505 1506 1506 1507 1508 1509 1510 1511 1511 1512 1513 1514 1514 1515 1515 1515 1515 1515 1515 1515 1515 1514 1514
1481 1482 1483 1484 1484 1485 1487 1488 1488 1489 1490 1491 1492 1493 1495 1496 1497 1498 1499 1500 1500 1500 1501 1503 1504 1504 1505 1506 1507 1508 1508 1509 1509 1510 1510 1510 1510 1511 1510 1510 1510 1510 1509
1477 1478 1479 1479 1480 1481 1482 1484 1485 1485 1486 1487 1487 1488 1490 1491 1491 1492 1493 1494 1495 1495 1496 1497 1498 1500 1500 1501 1502 1502 1503 1504 1504 1505 1505 1505 1505 1505 1505 1505 1505 1505 1504
1473 1474 1475 1476 1476 1477 1478 1479 1480 1481 1482 1482 1483 1484 1485 1485 1486 1487 1487 1488 1489 1490 1491 1492 1493 1494 1495 1495 1496 1497 1498 1498 1499 1499 1499 1500 1500 1500 1500 1500 1500 1500 1500
1468 1469 1470 1471 1472 1473 1474 1475 1476 1476 1477 1478 1478 1479 1480 1481 1481 1482 1482 1483 1484 1485 1486 1487 1487 1488 1489 1489 1490 1491 1492 1492 1493 1494 1494 1494 1495 1495 1495 1495 1495 1495 1495
1464 1465 1465 1466 1467 1468 1469 1470 1471 1472 1472 1473 1474 1474 1474 1475 1476 1476 1477 1477 1478 1479 1480 1481 1482 1482 1483 1484 1484 1485 1486 1486 1487 1488 1488 1489 1489 1489 1489 1490 1490 1490 1490
1460 1460 1461 1462 1463 1464 1465 1466 1466 1467 1468 1468 1469 1469 1469 1470 1470 1471 1472 1472 1473 1474 1474 1475 1475 1476 1477 1478 1478 1479 1480 1481 1482 1482 1483 1483 1483 1483 1484 1484 1484 1485 1485
1456 1456 1457 1458 1459 1459 1460 1461 1462 1462 1463 1463 1463 1464 1464 1465 1465 1466 1466 1467 1467 1468 1469 1469 1470 1470 1471 1472 1473 1473 1474 1475 1476 1476 1476 1477 1477 1477 1478 1478 1479 1479 1479
1451 1452 1453 1453 1454 1455 1455 1456 1457 1457 1458 1458 1458 1458 1458 1459 1459 1460 1460 1461 1461 1462 1463 1464 1464 1465 1465 1466 1467 1468 1468 1469 1469 1470 1471 1471 1471 1471 1472 1473 1473 1474 1474